Regional Weather Roundup
Issued by NWS

Home | Current Version | Previous Version | Text Only | Print | Product List | Glossary Off
Versions: 1 2 3 4 5 6 7 8 9 10 11 12 13 14 15 16 17 18 19 20 21 22 23 24 25 26 27 28 29 30 31 32 33 34 35 36 37 38 39 40 41 42 43 44 45 46 47 48 49 50

772
ASUS45 KBOU 211807
RWRCO

WEATHER ROUNDUP FOR COLORADO
NATIONAL WEATHER SERVICE DENVER/BOULDER CO
1200 PM MDT FRI JUL 21 2017

NOTE: "FAIR" INDICATES FEW OR NO CLOUDS BELOW 12000 FEET WITH NO
SIGNIFICANT WEATHER AND/OR OBSTRUCTIONS TO VISIBILITY.

COZ001>005-013-030-031-211900-
...NORTHWEST COLORADO...

CITY           SKY/WX    TMP DP  RH WIND       PRES   REMARKS
CRAIG          PTSUNNY   82  48  30 NW6       30.23F
HAYDEN         FAIR      79  45  29 N9        30.26F
MEEKER         FAIR      78  53  41 VRB3      30.26S
RABBIT EARS PA FAIR      63  46  55 SW6       30.58F
STEAMBOAT SPGS FAIR      77  50  37 CALM      30.29S
WALDEN         FAIR      75  43  31 SW3       30.38F
$$

COZ006>008-011-211900-
...WEST CENTRAL VALLEYS...

CITY           SKY/WX    TMP DP  RH WIND       PRES   REMARKS
GRAND JUNCTION FAIR      84  51  31 CALM      30.14F
MONTROSE       FAIR      83  48  29 NW8       30.21F
EAGLE          MOSUNNY   79  48  34 MISG      30.29F
RIFLE          FAIR      77  54  44 W6        30.20F
DELTA          FAIR      88  47  24 S6        30.17F
NUCLA          FAIR      77  52  41 N7        30.28F
$$

COZ017>023-064>068-211900-
...SOUTHWEST COLORADO...

CITY           SKY/WX    TMP DP  RH WIND       PRES   REMARKS
DURANGO        FAIR      77  49  37 W7        30.28F
CORTEZ         FAIR      80  54  40 CALM      30.23F
PAGOSA SPRINGS FAIR      76  44  31 SW8       30.36S
TELLURIDE      NOT AVBL
WOLF CREEK PAS PTSUNNY   54  45  71 W5        30.72S
$$

COZ009-010-012-014-032>034-037-058>063-211900-
...CENTRAL COLORADO...

CITY           SKY/WX    TMP DP  RH WIND       PRES   REMARKS
ASPEN          FAIR      79  48  33 NW9       30.33F
BUENA VISTA    FAIR      76  42  29 CALM      30.34F
COPPER MTN     CLOUDY    61  43  51 NW10      30.69S
BERTHOUD PASS  FAIR      52  37  58 N5        30.74S
COTTONWOOD PAS FAIR      73  41  31 E7        30.51S
GUNNISON       FAIR      75  45  34 VRB3      30.34F
KREMMLING      FAIR      81  48  32 S3        30.34F
LEADVILLE      FAIR      69  38  32 VRB6      30.46F
MONARCH PASS   PTSUNNY   59  39  47 SW3       30.79S
SALIDA         FAIR      82  40  22 CALM      30.37F
SUNLIGHT       PTSUNNY   55  45  67 NW3       30.62F
WILKERSON PASS FAIR      64  36  34 W5        30.66S
$$

COZ069>075-211900-
...SAN LUIS VALLEY/SANGRE DE CRISTO MOUNTAINS...

CITY           SKY/WX    TMP DP  RH WIND       PRES   REMARKS
ALAMOSA        FAIR      76  49  38 VRB3      30.33F
DEL NORTE      FAIR      74  48  39 E7        30.38S
LA VETA PASS   NOT AVBL
SAGUACHE         N/A    N/A N/A N/A MISG        N/A
$$

COZ035-036-038>040-211900-
...NORTHERN COLORADO FRONT RANGE...

CITY           SKY/WX    TMP DP  RH WIND       PRES   REMARKS
DENVER INTL AP FAIR      90  45  21 VRB5      30.12F
DMNS CITY PARK   N/A     90  47  22 CALM      30.11F
AURORA         MOSUNNY   88  49  26 NE3       30.15F
FRONT RANGE AP FAIR      90  43  19 CALM      30.14F
ERIE MUNI ARPT FAIR      92  42  17 E7        30.10F
BOULDER MUN AP FAIR      91  46  21 SE7       30.11S
CENTENNIAL     FAIR      87  46  24 SE9       30.16F
BROOMFIELD     FAIR      90  45  20 SE8       30.15F
FORT COLLINS   FAIR      92  51  24 NE10      30.10F
LONGMONT       FAIR      94  47  20 E9        30.11S
$$

COZ041-046-047-076>085-087-088-211900-
...PIKES PEAK/PALMER DIVIDE AND SOUTHERN FOOTHILLS...

CITY           SKY/WX    TMP DP  RH WIND       PRES   REMARKS
COLO. SPRINGS  FAIR      87  50  27 NE5       30.20F
A. F. ACADEMY  FAIR      84  45  25 SE3       30.21F
SCHRIEVER AFB  FAIR      83  48  29 E5        30.21F
CHEYENNE MTN   FAIR      83  47  28 E7        30.21F
ELLICOTT       FAIR     N/A N/A N/A VRB6      30.18F
FALCON           N/A     84  44  24 SE3       30.27S
FORT CARSON    FAIR      86  51  29 SE3       30.17F
LIMON          FAIR      88  53  30 NE9       30.13F
MONUMENT HILL  FAIR      81  45  28 NE9       30.28F
CANON CITY     SUNNY     90  54  29 MISG      30.13F
WALSENBURG     FAIR      91  45  19 NE3       30.18F
TRINIDAD       FAIR      90  44  20 VRB5      30.16F
$$

COZ042>045-048>051-090-091-211900-
...NORTHEAST COLORADO...

CITY           SKY/WX    TMP DP  RH WIND       PRES   REMARKS
GREELEY ARPT   FAIR      89  49  25 CALM      30.09F
AKRON          NOT AVBL
BURLINGTON     FAIR      95  55  26 VRB5      30.02S
WRAY           NOT AVBL
YUMA           FAIR      91  30  11 N8        30.02S
STERLING       FAIR      95  54  24 W7        30.00F
HOLYOKE        FAIR      99  52  20 W8        29.99S
FORT MORGAN    FAIR      93  46  19 NW6       30.07F
$$

COZ086-089-092>099-211900-
...SOUTHEAST COLORADO...

CITY           SKY/WX    TMP DP  RH WIND       PRES   REMARKS
PUEBLO         FAIR      92  51  24 VRB3      30.07F
LA JUNTA       FAIR      93  54  26 CALM      30.05S
LAMAR          FAIR      92  60  34 VRB6      29.98S
SPRINGFIELD      N/A     92  54  27 SW15G21   30.05F
$$




USA.gov is the U.S. government's official web portal to all federal, state and local government web resources and services.